Location: ?????????
(54.7630°N, 39.4991°E)
Time: 08:06:00
(UTC+00:00)

MetOp-A - Pass Details

Date: 14 April 2026
Orbit: 520 x 765 km, 98.3° (Epoch: 14 May)

Event Time Altitude Azimuth Distance (km) Brightness Sun altitude
Exits shadow 20:49:37 72° 110° (ESE) 784 3.8 -25.2°
Maximum altitude 20:49:57 76° 72° (ENE) 773 3.9 -25.2°
Drops below altitude 10° 20:55:04 10° 347° (NNW) 2,307 7.5 -25.3°
Sets 20:57:25 0° 346° (NNW) 3,246 8.6 -25.4°
